sat.trackr.live / text

‹ back to catalog

STARLINK-34781

NORAD 65073 · 2025-165T

PAYLOAD ACTIVE UNKNOWN

§ Identity

Operator
Country
US
Launch date
2025-07-31
Launch site
AFWTR
Launch vehicle
Mass (kg)
RCS (m²)

Purposes: comms

External: N2YO · Heavens-Above · Gunter

§ Orbital elements

Epoch: 2026-09-20T22:00:03.000096Z

Period
93.91 min
Inclination
97.2853°
Eccentricity
0.0001606
Mean motion
15.33456908 rev/d
Perigee alt
464.4 km
Apogee alt
466.6 km
Semi-major
6,843.6 km
B*
-8.9700e-4
RAAN
335.1102°
Arg perigee
92.2470°
Mean anomaly
48.5142°
Rev number
574

§ Raw data

STARLINK-347811 65073U 25165T   26263.91670139 -.00028935  00000+0 -89700-3 0  99902 65073  97.2853 335.1102 0001606  92.2470  48.5142 15.33456908  5743

JSON: /api/v1/satellites/65073 · /tle

For live sub-satellite position, see the globe view (requires WebGL).

§ Visibility from observer

Set your observer location to see the next 7 days of passes ≥ 10°. The values pass through the URL so the page stays shareable.

No JS? Fill the form by hand. The geolocation button needs JavaScript.